Thermal, CA

7:08 AM PDT on April 26, 2017 (GMT -0700)
Desert Resorts Regional

Weather History for KTRM - September, 2012

Change the Weather History Date:

Saturday, September 22, 2012

  Actual Average Record
Temperature  
Mean Temperature 90 °F 82 °F  
Max Temperature 107 °F 100 °F 112 °F (1966)
Min Temperature 73 °F 64 °F 55 °F (1978)
Degree Days  
Heating Degree Days 0 0  
Month to date heating degree days 0 0  
Since 1 July heating degree days 0 0  
Cooling Degree Days 25 17  
Month to date cooling degree days 520 446  
Year to date cooling degree days 3690 3279  
Growing Degree Days 40 (Base 50)    
Moisture  
Dew Point 54 °F    
Average Humidity 33    
Maximum Humidity 53    
Minimum Humidity 12    
Precipitation  
Precipitation 0.00 in 0.01 in 0.41 in (1999)
Month to date precipitation 1.42 0.18  
Year to date precipitation 2.40 2.33  
Since 1 July precipitation 2.04  
Snow  
Snow 0.00 in - - ()
Month to date snowfall 0.0  
Year to date snowfall 0.0  
Snow Depth 0.00 in    
Sea Level Pressure  
Sea Level Pressure 29.78 in    
Wind  
Wind Speed 4 mph (NNW)    
Max Wind Speed 8 mph    
Max Gust Speed 12 mph    
Visibility 10 miles    
Events      
T = Trace of Precipitation, MM = Missing Value Source: NWS Daily Summary

Daily Weather History Graph

Daily Weather History Graph

Search for Another Location

Airport or City:

Trip Planner

Search our weather history database for the weather conditions in past years. The results will help you decide how hot, cold, wet, or windy it might be!

Date:

Astronomy

Sep. 22, 2012 Rise Set
Actual Time 6:33 AM PDT 6:40 PM PDT
Civil Twilight 6:08 AM PDT 7:05 PM PDT
Nautical Twilight 5:39 AM PDT 7:34 PM PDT
Astronomical Twilight 5:09 AM PDT 8:03 PM PDT
Moon 1:38 PM PDT (9/22) No Moon Set
Length of Visible Light 12h 57m
Length of Day
12h 07m
Waxing Crescent, 50% of the Moon is Illuminated
Sep 22
Waxing Crescent
Sep 22
First Quarter
Sep 29
Full
Oct 8
Last Quarter
Oct 15
New

Hourly Weather History & Observations

Time (PDT) Temp. Heat Index Dew Point Humidity Pressure Visibility Wind Dir Wind Speed Gust Speed Precip Events Conditions
12:52 AM 88.0 °F - 51.1 °F 28% 29.75 in 10.0 mi NW 5.8 mph - N/A   Clear
1:52 AM 88.0 °F - 52.0 °F 29% 29.75 in 10.0 mi North 4.6 mph - N/A   Clear
2:52 AM 78.1 °F - 55.0 °F 45% 29.75 in 10.0 mi Calm Calm - N/A   Clear
3:52 AM 73.9 °F - 55.9 °F 53% 29.77 in 10.0 mi SE 6.9 mph - N/A   Clear
4:52 AM 81.0 °F 81.0 °F 57.0 °F 44% 29.78 in 10.0 mi Variable 4.6 mph - N/A   Clear
5:52 AM 75.0 °F - 55.9 °F 51% 29.79 in 10.0 mi West 4.6 mph - N/A   Clear
6:52 AM 75.9 °F - 55.9 °F 50% 29.80 in 10.0 mi NW 4.6 mph - N/A   Clear
7:52 AM 81.0 °F 81.3 °F 59.0 °F 47% 29.81 in 10.0 mi NNE 3.5 mph - N/A   Clear
8:52 AM 91.0 °F 89.7 °F 57.0 °F 32% 29.83 in 10.0 mi Calm Calm - N/A   Clear
9:52 AM 98.1 °F 95.7 °F 53.1 °F 22% 29.83 in 10.0 mi Calm Calm - N/A   Clear
10:52 AM 100.9 °F - 46.0 °F 15% 29.83 in 10.0 mi North 3.5 mph - N/A   Clear
11:52 AM 102.0 °F - 52.0 °F 19% 29.81 in 10.0 mi Variable 3.5 mph - N/A   Clear
1:52 PM 106.0 °F - 43.0 °F 12% 29.77 in 10.0 mi SSE 5.8 mph - N/A   Clear
2:52 PM 105.1 °F - 43.0 °F 12% 29.76 in 10.0 mi SE 4.6 mph - N/A   Clear
3:52 PM 104.0 °F - 45.0 °F 14% 29.75 in 10.0 mi SSW 3.5 mph - N/A   Clear
4:52 PM 102.0 °F - 50.0 °F 17% 29.74 in 10.0 mi Calm Calm - N/A   Clear
5:52 PM 96.1 °F 97.3 °F 63.0 °F 33% 29.74 in 10.0 mi ESE 3.5 mph - N/A   Clear
6:52 PM 95.0 °F 94.0 °F 57.9 °F 29% 29.74 in 10.0 mi Calm Calm - N/A   Clear
7:52 PM 91.0 °F 90.2 °F 59.0 °F 34% 29.75 in 10.0 mi NW 3.5 mph - N/A   Clear
8:52 PM 89.1 °F 88.8 °F 60.1 °F 38% 29.77 in 10.0 mi North 4.6 mph - N/A   Clear
9:52 PM 91.9 °F 89.5 °F 54.0 °F 27% 29.78 in 10.0 mi NNW 6.9 mph - N/A   Clear
10:52 PM 93.0 °F 90.8 °F 54.0 °F 27% 29.78 in 10.0 mi NNW 10.4 mph - N/A   Clear
11:52 PM 91.0 °F 88.5 °F 53.1 °F 27% 29.78 in 10.0 mi NNW 6.9 mph - N/A   Clear